General Aviation Weather

Text Reports

Enter one or more of the following location identifiers separated by a space:

Zip Code, Four-Character ICAO or Three-Character IATA airport codes.

METAR - Aviation Routine Weather Report
KHCD - Hutchinson, Minnesota
Updated at 10:52 AM GMT on September 21, 2014 (5:52 AM CDT):
METAR KHCD 211052Z AUTO 30009KT 10SM CLR 11/10 A3003 RMK AO2 T01120100
TAF - Terminal Area Forecast
KHCD - Hutchinson, Minnesota
Updated at 10:52 AM GMT on September 21, 2014 (5:52 AM CDT):
No TAF is currently available for this location.
Decoded:
No decoded TAF is available.
PIREP - Pilot Weather Report
KHCD - Hutchinson, Minnesota
Updated at 10:52 AM GMT on September 21, 2014 (5:52 AM CDT):
No PIREP is currently available for this location.
AIRMET - Airmens Meteorological Information
KHCD - Hutchinson, Minnesota
Updated at 10:52 AM GMT on September 21, 2014 (5:52 AM CDT):
No AIRMET is currently available for this location.
SIGMET - Significant Meteorological Information
KHCD - Hutchinson, Minnesota
Updated at 10:52 AM GMT on September 21, 2014 (5:52 AM CDT):
No SIGMET is currently available for this location.
NOTAM - Notice to Airmen
KHCD - Hutchinson, Minnesota
Updated at 10:52 AM GMT on September 21, 2014 (5:52 AM CDT):
No NOTAM is currently available for this location.
Forecast Area
KHCD - Hutchinson, Minnesota
Updated at 10:52 AM GMT on September 21, 2014 (5:52 AM CDT):
No NOTAM is currently available for this location.
Aviation Weather Maps